When you browse on this site, cookies collect data to enhance your experience and personalize the content and advertising you see.
Visit our Privacy Policy to learn more. By continuing to use the site, you agree to this use of cookies and data.
  • en France
  • Liste des pays
  • À 7 jours
  • Température de l'eau
  • Carte météo
  • Widgets météo
  • user-avatar
    Se connecter

    Météo par heure à Erfurt

    Ce jour, 26 Février, Mercredi

    Heure Température Précipitation Vent Pression Humidité
    00:00 +3°C° 0.2 mm 7 m/s 729 mmHg 83%
    01:00 +3°C° 0 mm 6 m/s 728 mmHg 83%
    02:00 +2°C° 0 mm 5 m/s 728 mmHg 84%
    03:00 +3°C° 0 mm 4 m/s 727 mmHg 85%
    04:00 +1°C° 0 mm 4 m/s 727 mmHg 85%
    05:00 +1°C° 0.8 mm 4 m/s 727 mmHg 84%
    06:00 +1°C° 0.8 mm 5 m/s 727 mmHg 82%
    07:00 +1°C° 0.8 mm 6 m/s 727 mmHg 80%
    08:00 0°C° 0 mm 7 m/s 727 mmHg 78%
    09:00 0°C° 0 mm 7 m/s 727 mmHg 76%
    10:00 0°C° 0 mm 8 m/s 727 mmHg 74%
    11:00 0°C° 0.3 mm 8 m/s 727 mmHg 79%
    12:00 0°C° 0.3 mm 7 m/s 728 mmHg 84%
    13:00 0°C° 0.3 mm 7 m/s 728 mmHg 88%
    14:00 0°C° 0.1 mm 7 m/s 728 mmHg 83%
    15:00 +2°C° 0.1 mm 6 m/s 729 mmHg 77%
    16:00 +2°C° 0.1 mm 6 m/s 729 mmHg 71%
    17:00 +2°C° 0.4 mm 6 m/s 730 mmHg 76%
    18:00 +1°C° 0.4 mm 6 m/s 731 mmHg 81%
    19:00 +1°C° 0.4 mm 6 m/s 731 mmHg 86%
    20:00 -1°C° 0.1 mm 6 m/s 732 mmHg 85%
    21:00 -1°C° 0.1 mm 6 m/s 733 mmHg 85%
    22:00 -1°C° 0.1 mm 6 m/s 733 mmHg 84%
    23:00 -1°C° 0 mm 6 m/s 734 mmHg 85%

    Demain, 27 Février, Jeudi

    Heure Température Précipitation Vent Pression Humidité
    00:00 -1°C° 0 mm 6 m/s 734 mmHg 86%
    01:00 -1°C° 0 mm 6 m/s 735 mmHg 88%
    02:00 -2°C° 0 mm 6 m/s 735 mmHg 88%
    03:00 -2°C° 0 mm 6 m/s 735 mmHg 87%
    04:00 -2°C° 0 mm 6 m/s 735 mmHg 87%
    05:00 -1°C° 0 mm 5 m/s 735 mmHg 88%
    06:00 -1°C° 0 mm 5 m/s 736 mmHg 88%
    07:00 -1°C° 0 mm 5 m/s 736 mmHg 89%
    08:00 -1°C° 0 mm 5 m/s 736 mmHg 84%
    09:00 -1°C° 0 mm 6 m/s 736 mmHg 79%
    10:00 +1°C° 0 mm 6 m/s 736 mmHg 74%
    11:00 +1°C° 0 mm 6 m/s 735 mmHg 71%
    12:00 +2°C° 0 mm 6 m/s 734 mmHg 67%
    13:00 +2°C° 0 mm 5 m/s 734 mmHg 64%
    14:00 +2°C° 0.1 mm 5 m/s 732 mmHg 67%
    15:00 +2°C° 0.1 mm 5 m/s 731 mmHg 71%
    16:00 +1°C° 0.1 mm 4 m/s 730 mmHg 74%
    17:00 0°C° 0.7 mm 5 m/s 728 mmHg 81%
    18:00 -1°C° 0.7 mm 6 m/s 726 mmHg 88%
    19:00 -2°C° 0.7 mm 6 m/s 724 mmHg 95%
    20:00 -2°C° 2.2 mm 6 m/s 723 mmHg 96%
    21:00 -2°C° 2.2 mm 6 m/s 723 mmHg 97%
    22:00 -1°C° 2.2 mm 5 m/s 722 mmHg 98%
    23:00 -2°C° 1.6 mm 7 m/s 724 mmHg 97%

    Après-demain, 28 Février, Vendredi

    Heure Température Précipitation Vent Pression Humidité
    00:00 -2°C° 1.6 mm 8 m/s 727 mmHg 96%
    01:00 -3°C° 1.6 mm 9 m/s 729 mmHg 96%
    02:00 -4°C° 0.2 mm 8 m/s 731 mmHg 94%
    03:00 -3°C° 0.2 mm 7 m/s 733 mmHg 92%
    04:00 -4°C° 0.2 mm 6 m/s 736 mmHg 90%
    05:00 -3°C° 0 mm 6 m/s 737 mmHg 90%
    06:00 -3°C° 0 mm 6 m/s 738 mmHg 90%
    07:00 -3°C° 0 mm 6 m/s 739 mmHg 90%
    08:00 -2°C° 0 mm 6 m/s 740 mmHg 90%
    09:00 -2°C° 0 mm 6 m/s 740 mmHg 89%
    10:00 -1°C° 0 mm 7 m/s 741 mmHg 89%
    11:00 -1°C° 0 mm 7 m/s 742 mmHg 89%
    12:00 -1°C° 0 mm 6 m/s 742 mmHg 89%
    13:00 -1°C° 0 mm 6 m/s 743 mmHg 89%
    14:00 -1°C° 0 mm 6 m/s 743 mmHg 88%
    15:00 0°C° 0 mm 5 m/s 743 mmHg 87%
    16:00 +1°C° 0 mm 4 m/s 743 mmHg 86%
    17:00 0°C° 0 mm 4 m/s 743 mmHg 86%
    18:00 0°C° 0 mm 3 m/s 743 mmHg 87%
    19:00 -1°C° 0 mm 2 m/s 743 mmHg 88%
    20:00 -1°C° 0 mm 2 m/s 742 mmHg 88%
    21:00 -1°C° 0 mm 2 m/s 742 mmHg 88%
    22:00 -1°C° 0 mm 2 m/s 742 mmHg 88%
    23:00 -1°C° 0 mm 2 m/s 741 mmHg 88%

    29 Février, Samedi

    Heure Température Précipitation Vent Pression Humidité
    00:00 0°C° 0 mm 3 m/s 741 mmHg 88%
    01:00 0°C° 0 mm 3 m/s 740 mmHg 88%
    02:00 0°C° 0.2 mm 3 m/s 739 mmHg 91%
    03:00 0°C° 0.2 mm 3 m/s 738 mmHg 94%
    04:00 -1°C° 0.2 mm 4 m/s 737 mmHg 97%
    05:00 0°C° 0.5 mm 4 m/s 737 mmHg 97%
    06:00 +2°C° 0.5 mm 3 m/s 736 mmHg 97%
    07:00 +2°C° 0.5 mm 3 m/s 735 mmHg 97%
    08:00 +3°C° 0.2 mm 3 m/s 735 mmHg 96%
    09:00 +5°C° 0.2 mm 4 m/s 734 mmHg 95%
    10:00 +6°C° 0.2 mm 4 m/s 734 mmHg 94%
    11:00 +7°C° 0 mm 5 m/s 733 mmHg 92%
    12:00 +7°C° 0 mm 5 m/s 732 mmHg 90%
    13:00 +8°C° 0 mm 6 m/s 731 mmHg 88%
    14:00 +8°C° 0.1 mm 6 m/s 731 mmHg 87%
    15:00 +8°C° 0.1 mm 7 m/s 730 mmHg 86%
    16:00 +8°C° 0.1 mm 7 m/s 729 mmHg 85%
    17:00 +8°C° 0.5 mm 7 m/s 729 mmHg 87%
    18:00 +8°C° 0.5 mm 7 m/s 729 mmHg 88%
    19:00 +8°C° 0.5 mm 7 m/s 729 mmHg 89%
    20:00 +7°C° 0.6 mm 6 m/s 730 mmHg 86%
    21:00 +5°C° 0.6 mm 6 m/s 730 mmHg 83%
    22:00 +4°C° 0.6 mm 6 m/s 731 mmHg 80%
    23:00 +3°C° 0 mm 6 m/s 732 mmHg 80%

    1 Mars, Dimanche

    Heure Température Précipitation Vent Pression Humidité
    00:00 +2°C° 0 mm 6 m/s 732 mmHg 80%
    01:00 +1°C° 0 mm 5 m/s 733 mmHg 80%
    02:00 +1°C° 0 mm 6 m/s 733 mmHg 80%
    03:00 +1°C° 0 mm 6 m/s 733 mmHg 80%
    04:00 +1°C° 0 mm 6 m/s 733 mmHg 80%
    05:00 -1°C° 0 mm 6 m/s 733 mmHg 81%
    06:00 -1°C° 0 mm 6 m/s 733 mmHg 81%
    07:00 -1°C° 0 mm 6 m/s 733 mmHg 82%
    08:00 0°C° 0 mm 7 m/s 733 mmHg 78%
    09:00 +2°C° 0 mm 7 m/s 733 mmHg 75%
    10:00 +2°C° 0 mm 8 m/s 734 mmHg 71%
    11:00 +2°C° 0 mm 8 m/s 734 mmHg 69%
    12:00 +4°C° 0 mm 8 m/s 734 mmHg 67%
    13:00 +4°C° 0 mm 8 m/s 733 mmHg 65%
    14:00 +5°C° 0 mm 7 m/s 733 mmHg 65%
    15:00 +5°C° 0 mm 7 m/s 733 mmHg 64%
    16:00 +5°C° 0 mm 7 m/s 732 mmHg 64%
    17:00 +4°C° 0 mm 6 m/s 732 mmHg 68%
    18:00 +3°C° 0 mm 5 m/s 733 mmHg 72%
    19:00 +2°C° 0 mm 5 m/s 733 mmHg 76%
    20:00 +2°C° 0 mm 5 m/s 733 mmHg 77%
    21:00 +2°C° 0 mm 5 m/s 733 mmHg 78%
    22:00 +2°C° 0 mm 5 m/s 733 mmHg 79%
    23:00 +2°C° 0 mm 5 m/s 732 mmHg 80%

    2 Mars, Lundi

    Heure Température Précipitation Vent Pression Humidité
    00:00 +2°C° 0 mm 5 m/s 732 mmHg 82%
    01:00 +1°C° 0 mm 4 m/s 732 mmHg 83%
    02:00 +1°C° 0 mm 4 m/s 732 mmHg 84%
    03:00 +3°C° 0 mm 4 m/s 732 mmHg 85%
    04:00 +3°C° 0 mm 4 m/s 732 mmHg 86%
    05:00 +2°C° 0 mm 5 m/s 732 mmHg 87%
    06:00 +2°C° 0 mm 5 m/s 732 mmHg 88%
    07:00 +2°C° 0 mm 5 m/s 732 mmHg 89%
    08:00 +3°C° 0 mm 6 m/s 732 mmHg 86%
    09:00 +3°C° 0 mm 6 m/s 732 mmHg 84%
    10:00 +4°C° 0 mm 7 m/s 732 mmHg 82%
    11:00 +4°C° 0 mm 7 m/s 732 mmHg 78%
    12:00 +5°C° 0 mm 7 m/s 731 mmHg 73%
    13:00 +6°C° 0 mm 7 m/s 731 mmHg 69%
    14:00 +7°C° 0 mm 6 m/s 731 mmHg 71%
    15:00 +7°C° 0 mm 6 m/s 731 mmHg 73%
    16:00 +6°C° 0 mm 5 m/s 730 mmHg 74%
    17:00 +5°C° 0 mm 4 m/s 731 mmHg 79%
    18:00 +5°C° 0 mm 3 m/s 731 mmHg 83%
    19:00 +4°C° 0 mm 3 m/s 731 mmHg 87%
    20:00 +4°C° 0 mm 2 m/s 732 mmHg 88%
    21:00 +4°C° 0 mm 2 m/s 732 mmHg 89%
    22:00 +5°C° 0 mm 1 m/s 733 mmHg 90%
    23:00 +4°C° 0 mm 1 m/s 733 mmHg 90%
    Voir plus